Theta_e
301 302 302 302 302 301 301 300 301 303 305 306 305 304 305 306 308 304 303 299 297 295 297 297 298 299 300 301 300 301 300 301 298 295 293 293 293 295 295 296 294 294 293 292 291 290 287 301 298 293 299 300 302 300
300 301 301 302 301 301 301 301 301 302 303 305 306 304 304 306 308 302 301 298 299 296 299 299 301 303 302 301 303 301 301 300 301 298 297 296 294 294 294 293 297 294 298 297 296 297 298 303 300 300 303 302 300 300
300 300 300 301 301 301 301 301 301 301 302 304 306 305 304 306 307 305 302 301 298 296 298 297 299 302 302 302 308 300 303 303 302 303 300 298 294 296 293 293 295 297 297 298 296 298 299 301 301 302 301 301 300 300
300 300 300 300 301 301 301 301 301 301 302 304 306 305 305 305 307 306 301 299 299 296 292 297 302 302 304 304 305 306 307 305 304 302 300 298 296 297 295 295 296 298 298 296 295 298 299 301 302 301 300 300 298 298
300 300 300 300 300 301 301 301 301 301 301 303 304 306 306 306 306 307 302 301 300 296 292 295 300 302 303 309 308 308 308 305 302 299 299 297 297 297 297 296 295 299 299 298 298 303 303 301 303 301 299 298 297 296
300 300 300 300 300 300 301 301 301 301 301 303 305 306 306 306 306 300 296 299 300 300 295 292 299 301 303 306 305 304 304 302 302 301 299 298 298 298 295 293 299 300 302 304 301 304 301 301 302 301 299 297 297 296
300 300 300 300 300 300 301 300 301 301 301 302 304 305 306 306 303 297 295 299 300 300 295 292 294 300 302 302 302 304 303 302 302 300 300 300 300 300 297 295 301 301 302 302 303 302 299 300 299 299 298 298 297 297
300 300 300 300 300 300 300 300 300 301 300 301 303 304 305 305 304 299 302 303 303 297 297 291 293 297 302 299 298 301 301 302 301 300 299 299 298 299 294 299 298 301 301 301 302 302 303 302 300 298 298 297 296 296
300 300 300 300 300 300 300 300 300 301 300 301 302 303 303 299 295 297 305 304 300 298 290 290 290 292 300 298 299 299 301 296 298 298 298 298 296 294 298 300 299 301 302 301 300 300 300 299 298 297 296 295 295 295
300 300 300 300 300 300 300 300 300 300 300 301 301 296 292 297 302 305 300 296 296 295 291 287 293 292 297 297 296 297 298 296 293 297 297 295 295 301 302 303 304 303 304 301 299 297 298 297 296 296 295 296 297 297
300 300 300 300 300 300 300 300 300 300 299 298 293 292 299 304 300 296 291 290 289 288 290 292 290 293 299 295 296 298 295 295 291 294 294 294 294 298 301 301 304 305 304 304 304 304 302 301 297 296 295 296 297 296
299 300 300 300 300 300 300 300 300 299 297 297 297 300 299 295 292 287 286 289 287 287 292 290 289 293 297 299 298 296 294 294 289 296 294 291 298 300 301 300 302 303 303 302 302 301 300 299 299 297 297 297 298 299
299 299 299 299 300 300 300 300 300 299 299 299 292 290 289 289 282 283 282 285 286 291 292 290 290 296 295 297 297 296 292 292 297 293 292 295 299 299 301 301 301 302 302 300 299 300 299 298 298 297 298 299 299 299
299 299 299 299 300 300 300 300 300 299 296 287 285 283 283 282 283 286 287 290 294 295 294 292 292 295 294 292 296 292 295 295 290 288 290 299 301 301 300 301 300 299 300 299 298 298 297 297 297 298 300 300 300 298
299 299 299 299 299 300 299 299 300 299 292 286 286 282 282 288 290 291 292 292 294 297 296 293 295 295 293 290 293 292 289 289 291 291 298 301 301 300 299 300 300 299 299 298 298 297 297 298 298 298 300 301 302 300
299 298 298 299 300 299 299 299 298 296 290 286 287 285 287 287 288 290 291 291 295 296 299 297 293 290 289 291 289 289 289 288 293 297 300 300 300 300 300 300 300 300 299 298 298 298 298 298 298 299 300 301 301 301
298 295 299 300 299 298 299 296 294 287 287 286 285 289 289 290 289 291 295 296 300 297 293 295 290 289 294 290 289 293 291 296 298 298 300 301 301 300 300 300 299 299 298 298 298 299 299 301 300 299 299 300 301 301
293 297 300 299 298 297 295 294 289 286 285 287 285 288 289 291 293 295 294 298 296 295 296 293 296 290 289 287 290 295 296 299 299 301 301 300 301 301 301 300 299 299 298 299 300 300 300 299 299 298 298 300 301 300
295 297 298 299 298 293 289 289 289 285 286 288 288 290 290 291 294 295 299 300 301 296 295 294 290 289 293 296 295 296 299 300 299 299 300 301 302 301 300 300 299 299 299 299 300 299 299 298 298 299 298 298 299 300
297 298 299 299 299 291 287 288 292 287 285 288 290 290 291 293 296 298 298 299 298 295 290 290 292 295 297 300 301 300 301 301 300 298 298 300 301 301 300 299 299 300 300 301 300 296 298 297 297 297 299 299 300 299
296 298 298 297 291 288 290 288 288 289 290 288 290 290 292 292 293 293 294 297 292 290 289 293 294 297 299 301 303 303 303 303 302 303 300 298 300 300 299 299 300 300 300 300 299 296 295 297 297 297 297 298 301 300
295 297 295 296 290 291 289 292 289 290 287 288 289 289 289 290 290 292 294 292 292 294 296 293 294 296 298 299 304 304 303 303 303 300 297 297 298 298 298 299 299 299 300 300 300 300 298 299 300 299 299 299 298 298
297 296 294 291 287 287 287 293 287 287 285 286 289 287 288 289 290 292 289 291 292 297 299 298 298 298 297 300 304 303 303 303 302 301 301 301 301 301 299 299 301 299 298 299 302 301 301 297 297 300 300 298 298 297
298 291 287 286 286 283 289 287 287 286 287 286 285 284 286 289 290 289 287 290 292 294 296 296 297 294 299 303 302 302 302 303 302 301 302 300 299 299 300 300 301 302 302 301 301 300 301 301 296 301 301 300 299 298
285 286 287 282 286 283 283 283 284 285 283 285 284 285 288 289 286 286 286 289 291 291 293 294 294 295 297 299 301 302 304 303 301 300 301 302 301 300 300 301 301 302 302 301 300 300 301 302 301 300 300 300 299 300
277 283 283 283 284 283 283 281 282 283 284 284 285 288 289 287 284 283 288 292 292 292 292 293 293 294 296 301 300 301 303 305 304 301 301 303 302 301 299 299 299 300 302 303 302 301 301 301 300 300 300 296 292 301
278 281 285 287 286 286 284 286 286 285 283 283 286 286 286 281 282 287 294 296 297 298 296 295 295 296 297 298 302 304 304 306 305 305 305 304 304 304 303 301 300 302 303 302 303 303 301 301 300 300 300 301 301 301
285 285 282 285 285 287 284 285 284 283 285 288 288 283 282 283 286 294 297 301 301 300 300 299 296 299 298 299 302 305 305 304 304 304 304 304 304 305 305 305 305 292 303 304 304 304 304 303 302 301 301 301 302 303
284 287 286 283 284 285 286 286 286 289 291 290 287 287 288 293 296 299 301 302 302 300 300 299 299 298 298 299 303 306 305 304 302 301 301 300 300 301 304 304 302 304 304 303 287 296 304 303 304 304 303 303 303 304
283 287 285 285 284 283 287 290 290 292 293 294 294 294 295 297 299 301 301 300 299 299 300 301 300 298 297 297 298 302 305 306 306 305 303 302 303 305 304 304 304 304 304 304 303 300 288 299 297 303 302 302 302 300
286 285 284 285 286 289 291 293 293 293 294 294 294 293 293 295 298 299 299 300 300 300 300 299 300 300 299 298 298 299 300 305 307 307 307 307 306 305 305 305 304 304 304 304 303 303 304 303 303 303 302 301 300 299
285 284 284 282 285 289 292 291 291 291 291 292 292 293 293 293 291 296 300 299 297 296 294 297 300 300 302 303 303 303 293 303 305 307 306 306 306 306 306 305 304 304 303 303 303 304 304 304 304 303 302 300 301 301
287 286 285 286 286 287 290 290 289 288 289 289 290 291 292 292 289 296 300 300 299 298 298 299 301 303 303 303 304 303 295 305 301 291 291 293 294 298 304 304 304 304 303 303 303 304 304 304 303 303 302 301 301 300
Wind_Speed
16 16 17 15 14 13 14 14 14 15 16 12 10 11 11 12 9 0 2 3 3 3 6 3 3 2 1 0 2 4 3 2 2 3 3 3 3 3 3 3 4 7 7 4 3 4 5 11 7 6 3 3 6 5
17 16 15 12 13 13 13 13 14 14 15 16 10 8 10 13 7 2 2 1 2 4 5 3 7 10 6 2 1 2 2 2 3 4 2 2 3 3 3 3 1 4 3 3 6 2 2 7 1 3 4 6 5 5
16 16 16 15 14 13 13 12 13 14 14 16 10 9 8 11 9 4 2 1 2 3 5 3 5 1 2 9 4 2 2 3 3 2 3 2 3 3 4 4 3 3 3 3 4 5 4 5 4 4 4 7 8 8
16 16 16 15 14 13 13 12 12 13 14 15 12 9 9 8 9 7 2 2 2 3 4 2 3 2 2 6 5 2 4 5 4 1 2 2 2 3 2 1 3 1 7 6 2 3 2 6 7 9 8 9 9 7
16 16 16 15 14 13 13 12 12 12 13 14 13 11 8 9 8 2 2 3 2 3 3 5 8 2 2 5 7 6 7 5 2 3 2 3 2 4 2 1 4 6 6 5 4 8 3 3 13 12 11 8 8 8
18 18 17 16 15 14 13 12 12 11 12 13 12 10 7 5 1 1 3 3 5 3 3 4 3 1 3 6 9 8 4 3 2 2 2 2 1 3 3 3 3 6 5 3 4 10 8 8 11 10 9 9 8 7
19 18 17 17 15 14 12 12 11 11 10 11 10 11 6 6 3 3 2 2 5 2 3 4 2 1 3 3 2 2 2 2 0 2 2 2 3 3 2 4 4 9 7 6 10 13 7 8 6 10 9 9 9 6
19 19 17 15 14 13 11 11 10 10 10 10 9 11 8 4 4 4 1 9 4 1 2 3 2 2 5 3 4 0 3 1 2 2 2 2 3 2 5 7 2 8 8 8 9 3 5 12 13 10 9 9 8 8
18 17 16 14 13 13 11 10 11 9 8 9 9 4 1 1 2 1 5 8 0 1 2 2 3 4 4 2 2 3 1 3 1 3 2 4 3 6 8 8 11 13 12 14 7 7 10 11 12 11 10 10 9 9
16 14 15 12 12 11 12 12 11 7 6 7 1 1 2 3 3 6 3 3 3 2 2 3 1 1 3 3 3 4 1 3 4 3 4 4 4 8 7 8 11 14 11 16 12 8 9 10 11 12 11 9 9 9
12 12 14 12 12 12 10 9 9 6 1 2 2 3 1 2 2 2 3 3 2 4 5 4 6 2 4 4 4 2 4 4 4 4 4 3 4 4 5 9 7 13 14 14 2 6 10 10 13 12 10 9 8 8
13 13 12 13 13 13 11 10 8 5 2 2 1 2 1 2 3 3 4 3 4 4 5 5 5 4 1 2 3 4 3 3 4 6 4 3 4 4 5 9 11 13 14 11 7 9 9 9 11 11 11 10 9 7
12 11 11 11 11 13 12 9 9 6 1 1 2 5 3 3 5 5 7 3 4 4 5 5 6 4 1 3 1 3 5 4 7 5 4 4 2 4 6 9 11 11 13 10 9 10 9 11 11 11 10 9 8 7
12 11 11 10 8 11 10 7 8 7 2 3 4 7 5 5 5 4 4 2 2 1 2 5 4 4 1 2 1 5 3 6 5 5 5 3 6 8 8 9 13 15 13 12 11 11 12 12 11 10 9 8 8 8
11 11 11 11 9 9 10 7 9 3 2 3 3 5 6 4 3 3 4 3 2 0 1 3 3 3 3 2 4 2 5 5 6 5 4 4 9 11 12 12 14 13 11 10 10 11 12 12 10 10 8 7 7 7
10 6 7 10 12 10 9 7 4 2 3 3 4 3 2 3 5 3 5 7 3 2 2 3 4 5 4 4 4 6 5 5 4 4 3 7 12 13 14 13 13 11 10 10 10 10 11 10 10 9 8 7 6 8
10 1 12 14 13 11 12 3 2 2 4 3 3 4 4 3 3 2 1 1 2 4 5 4 7 4 5 4 4 4 4 3 2 3 4 7 14 15 14 13 12 11 10 10 9 9 9 8 7 7 8 8 7 7
2 5 16 18 13 10 2 2 2 3 5 5 3 3 5 5 3 3 1 2 3 3 2 3 1 4 4 5 5 4 1 2 3 3 5 9 12 14 12 14 12 11 10 9 8 8 8 8 8 6 5 7 7 8
4 6 18 17 6 3 3 4 2 3 3 2 3 4 3 4 4 5 4 2 2 3 3 2 4 3 4 3 3 3 1 2 4 5 7 9 12 14 13 12 11 10 10 8 7 4 4 6 5 5 6 8 8 8
7 7 16 15 6 1 3 3 2 2 2 2 3 3 3 2 1 2 2 1 1 3 4 4 4 3 3 2 4 5 4 3 8 10 8 8 9 13 13 11 9 10 9 8 5 3 5 5 4 5 6 9 9 9
5 5 13 4 2 2 3 3 3 2 2 3 1 3 2 2 1 2 2 3 1 2 3 3 3 7 9 9 8 6 6 8 8 9 14 11 9 9 9 9 10 8 8 6 6 4 2 4 5 5 6 6 6 6
2 1 3 4 3 3 2 2 2 1 2 2 1 1 1 1 1 1 1 2 3 3 3 3 3 6 7 8 5 5 7 8 8 11 13 14 11 10 9 9 8 8 7 7 6 6 4 4 4 6 6 6 6 7
6 1 2 2 2 1 1 1 1 2 2 1 1 1 1 0 1 1 3 2 2 1 2 1 5 8 9 9 5 8 9 11 9 11 11 9 9 9 9 8 7 7 6 5 5 5 5 9 6 4 4 5 6 7
2 2 2 1 1 0 1 2 2 1 1 2 3 2 1 1 2 1 3 2 1 0 2 3 4 8 3 7 6 7 6 7 9 9 9 10 9 8 8 7 6 5 5 6 5 4 5 6 10 8 6 5 7 8
1 3 2 2 3 3 2 1 1 2 2 1 1 1 1 0 1 2 2 2 1 2 3 3 5 6 2 3 4 4 6 7 9 10 7 8 9 8 7 6 6 5 5 6 5 5 7 9 10 8 8 9 9 13
1 3 4 3 2 2 3 4 4 3 2 2 2 1 1 1 3 3 2 2 2 1 2 5 5 3 2 3 4 3 4 5 8 9 7 8 9 10 10 10 8 6 4 5 6 8 9 9 11 11 7 8 9 14
1 2 3 1 1 1 2 1 1 1 3 3 2 3 1 2 2 2 2 1 2 1 2 3 4 4 2 5 7 4 3 4 4 4 7 7 6 5 8 10 11 8 7 6 6 9 9 10 11 12 11 11 12 14
3 2 4 4 3 1 2 3 3 4 2 2 3 3 2 3 1 2 3 2 2 3 2 2 2 2 2 2 5 9 7 6 9 9 9 6 4 3 4 4 6 11 8 7 6 6 10 8 9 12 12 12 12 13
3 2 3 4 3 3 3 4 3 3 2 3 2 2 2 2 1 2 1 2 2 3 2 2 1 3 4 3 4 5 7 8 11 14 13 9 7 4 5 6 7 7 7 6 4 4 10 11 10 8 10 10 9 8
3 4 3 4 4 5 4 5 2 2 3 2 1 1 2 2 2 2 3 3 2 1 2 1 0 4 7 7 7 6 5 5 6 8 10 9 8 9 8 8 9 8 7 7 7 7 6 9 9 8 9 9 9 9
1 3 3 3 3 3 3 2 1 1 2 3 2 3 2 3 3 3 4 4 3 2 2 1 1 3 6 7 8 8 7 7 9 5 4 8 8 10 10 10 9 8 8 8 8 10 9 10 11 8 10 9 10 11
4 5 3 4 2 1 1 2 1 2 1 2 2 2 1 2 3 2 2 3 4 5 5 4 3 2 4 3 4 6 6 8 8 7 10 7 8 10 10 10 11 9 10 10 10 10 12 12 10 12 8 9 11 13
1 2 2 1 2 3 2 2 1 1 1 2 2 2 3 3 5 2 1 5 5 4 5 7 6 4 4 4 5 4 6 7 7 8 9 10 10 10 11 10 11 11 13 11 10 9 12 14 11 10 11 12 12 14
Wind_Direction
299 298 301 287 300 306 313 319 319 320 324 311 320 326 332 324 338 91 309 216 278 263 279 238 276 284 221 152 172 122 158 150 117 146 195 173 214 170 202 145 185 179 172 177 153 199 241 151 145 214 82 93 147 147
295 296 300 295 298 298 304 310 318 315 318 321 284 314 322 320 337 153 283 73 310 247 291 294 269 273 260 294 208 162 7 149 136 113 173 139 176 183 180 207 195 205 204 173 195 202 92 169 91 91 129 139 148 142
285 290 293 291 290 290 295 300 308 314 311 310 288 284 316 314 328 208 266 317 250 274 268 265 247 141 182 218 199 246 193 132 175 355 132 118 213 172 185 215 190 184 161 165 163 172 190 184 111 133 132 121 125 110
272 279 284 286 286 280 287 291 300 308 309 307 312 281 284 291 316 201 231 145 258 293 279 285 331 280 322 184 174 196 125 101 97 216 121 146 193 217 182 28 247 84 164 154 178 192 211 213 191 154 130 124 117 126
263 270 276 279 285 281 278 285 290 301 304 309 309 294 293 317 308 237 233 215 211 275 310 296 302 341 296 161 126 127 133 128 159 157 167 166 124 173 105 234 230 188 167 186 209 168 179 110 165 158 148 145 140 146
269 266 264 268 273 276 278 275 280 291 299 308 316 313 282 297 335 273 267 172 204 214 269 284 4 301 88 114 111 106 102 93 89 155 140 150 75 230 185 225 241 194 191 181 142 138 85 96 136 152 143 144 143 151
263 260 260 264 267 272 268 273 270 280 297 308 304 321 291 294 193 223 330 60 154 187 247 271 255 108 146 124 85 112 69 97 69 122 183 147 152 225 208 224 197 181 166 136 132 125 113 167 163 156 143 142 144 150
256 256 251 252 259 262 260 271 261 271 288 296 302 308 280 292 228 264 222 185 160 237 247 263 245 215 191 156 145 359 131 144 71 112 154 179 144 230 246 227 122 147 136 145 149 58 83 126 135 141 141 148 156 164
253 260 241 239 247 248 250 255 256 259 275 295 307 330 179 155 220 170 90 115 152 206 209 253 245 172 163 111 103 135 209 165 74 207 188 191 154 223 229 190 172 170 172 164 131 112 133 141 150 154 159 168 172 172
253 247 232 230 240 248 248 245 251 232 264 302 269 271 232 205 253 157 165 199 190 163 148 245 251 260 234 168 126 140 204 159 188 158 135 219 247 251 238 210 185 174 157 148 137 142 154 158 167 169 177 175 179 168
241 230 230 225 234 242 248 239 236 186 146 194 213 230 33 274 207 199 229 217 151 190 191 225 194 260 176 204 145 239 159 162 206 146 215 206 256 230 199 188 172 169 167 174 150 156 170 172 171 169 169 172 171 164
228 230 234 237 232 232 239 231 193 154 204 209 236 264 89 212 204 204 209 188 206 222 180 206 196 178 223 243 200 178 180 186 193 140 207 236 237 176 167 166 157 159 160 159 143 139 146 148 162 161 162 167 171 164
222 229 233 243 236 218 225 228 187 173 191 42 290 186 190 161 221 225 194 176 194 199 191 186 167 131 297 233 207 183 180 172 125 185 220 236 140 165 156 149 147 153 152 137 126 132 135 141 153 159 161 166 164 170
220 230 229 235 236 206 212 209 179 165 126 227 217 159 215 176 234 208 224 168 100 182 177 186 139 121 120 294 230 201 115 150 183 198 222 221 191 156 152 151 148 154 151 143 142 145 146 152 158 166 165 165 168 169
223 225 226 211 214 201 186 170 169 144 135 259 210 197 200 247 252 261 286 269 240 183 2 177 128 136 133 227 268 177 176 195 202 212 204 197 154 152 151 153 147 150 148 145 148 152 153 156 163 165 170 167 175 166
211 221 199 191 185 168 159 173 163 135 174 250 223 233 181 224 243 233 236 252 244 193 175 240 145 164 190 188 209 225 188 190 199 204 169 139 153 154 152 151 149 148 148 146 153 158 160 165 173 177 174 179 178 173
176 192 168 155 136 140 150 119 120 193 215 228 243 248 253 277 251 250 231 253 169 190 213 193 176 174 138 197 215 207 213 203 188 164 148 161 160 154 149 145 145 144 144 148 154 160 167 169 166 171 183 189 183 178
97 168 160 145 159 128 39 76 163 234 217 222 226 213 223 251 272 189 261 228 214 198 236 200 75 187 209 190 205 222 217 69 43 114 133 142 146 147 146 142 143 143 143 148 157 160 165 173 184 197 192 177 169 168
137 142 156 158 139 126 149 156 169 266 233 237 248 242 242 259 237 265 251 217 219 124 300 166 202 197 229 243 307 329 264 186 149 124 121 138 144 142 137 135 136 139 140 140 150 170 187 196 198 187 181 176 180 171
162 175 163 163 132 183 177 137 198 257 252 221 220 221 236 262 271 221 139 181 143 160 194 214 218 219 260 297 326 312 305 161 148 127 125 133 139 138 140 140 141 137 132 127 119 132 141 139 141 158 171 173 166 166
52 160 150 115 78 249 257 157 190 210 247 243 213 222 219 206 187 208 184 131 161 227 231 237 279 286 292 293 289 262 219 185 185 157 148 143 146 138 138 136 140 144 146 140 115 119 175 164 158 155 154 158 163 153
79 2 126 166 209 234 222 227 259 104 238 308 194 217 225 200 181 182 339 220 227 199 201 184 256 269 301 303 289 205 175 152 123 108 103 124 138 142 146 149 153 156 159 158 147 130 131 125 142 158 167 157 150 151
141 210 114 128 245 250 39 145 276 208 235 97 329 276 167 245 75 287 256 247 276 185 191 255 308 319 300 280 153 138 144 138 140 128 134 128 133 138 142 154 158 150 145 151 178 181 158 136 134 139 135 138 140 141
195 182 94 326 191 325 285 215 214 214 158 169 194 219 204 354 340 266 271 281 327 181 235 262 296 303 305 130 128 116 123 138 129 122 133 134 134 140 151 151 157 154 136 139 161 149 138 125 145 156 150 165 151 142
172 169 195 225 207 212 171 92 237 213 191 160 136 196 129 239 261 261 262 278 247 222 186 254 249 251 324 69 99 98 131 155 138 131 137 133 128 132 141 146 147 147 150 148 155 144 134 130 118 138 180 195 194 163
219 180 190 191 138 158 214 183 197 173 154 173 214 79 134 214 244 248 238 280 290 291 144 187 231 222 121 115 118 142 139 139 139 134 145 154 157 155 157 161 161 164 188 180 151 151 109 129 145 126 116 117 150 142
292 182 175 229 259 168 157 110 118 205 195 201 175 177 188 213 236 274 292 219 269 324 293 271 216 203 170 140 146 152 124 144 131 135 139 154 155 160 164 167 175 163 162 174 160 165 148 112 136 134 128 119 118 136
242 240 212 158 195 207 167 178 201 203 190 150 153 194 216 217 228 212 257 307 317 323 287 296 216 207 149 102 126 133 126 116 99 106 109 95 107 141 147 123 151 140 155 170 156 157 165 143 135 149 155 155 158 166
227 199 198 189 182 199 218 206 217 212 174 180 208 212 230 208 235 256 308 296 307 320 11 38 81 145 123 112 130 129 141 144 145 148 151 149 155 161 161 138 141 156 153 145 61 133 148 152 162 134 159 167 171 164
225 183 208 193 194 210 209 188 221 189 195 204 245 272 247 257 269 252 221 222 258 326 36 48 12 187 162 155 145 150 157 173 211 172 162 165 168 150 159 149 153 155 157 155 130 115 113 117 117 116 124 129 126 132
180 183 212 203 232 219 217 184 196 196 203 216 213 254 269 315 293 258 247 238 241 242 230 233 167 183 181 174 169 163 171 206 223 226 111 120 138 153 154 151 152 152 158 151 148 149 145 147 143 142 103 110 133 141
187 201 198 194 220 113 149 195 183 213 194 219 204 197 220 245 266 263 216 188 197 214 226 230 225 199 199 198 193 207 199 186 189 181 150 138 141 152 151 149 151 155 156 150 150 157 155 144 150 132 166 147 150 142
199 169 199 195 164 177 154 167 133 273 248 261 249 227 219 237 248 274 256 221 233 239 219 211 217 208 197 217 225 218 208 207 176 136 137 135 139 149 151 154 157 161 160 156 153 157 156 145 142 151 150 149 145 139